{"data":{"norad_id":55629,"intl_designator":"2023-021B","name":"STARLINK-5497","alt_names":[],"object_type":"PAYLOAD","status":"ACTIVE","operator":null,"country":"US","launch_date":"2023-02-17","launch_site_code":"AFWTR","launch_vehicle":null,"mission":null,"orbit_class":"UNKNOWN","rcs_meters":null,"size_class":null,"mass_kg":null,"dimensions":null,"purposes":["comms"],"wikipedia_slug":null,"has_3d_model":false,"image_url":null,"decayed_at":null,"tle_current":{"epoch":"2026-09-20T22:00:03.000096Z","epoch_age_seconds":67117,"freshness":"FRESH","line1":"1 55629U 23021B   26263.91670139  .00078465  00000+0  53557-2 0  9996","line2":"2 55629  70.0003  72.2598 0005469 276.3327 331.8508 15.05741333  5764","mean_motion":15.05741333,"eccentricity":0.0005469,"inclination_deg":70.0003,"raan_deg":72.2598,"arg_perigee_deg":276.3327,"mean_anomaly_deg":331.8508,"bstar":0.0053557,"rev_number":576,"period_min":95.633955742649,"perigee_km":545.44243571114,"apogee_km":553.01959084407,"semimajor_km":6927.3680132776,"source":"CELESTRAK","updated_at":"2026-09-21T09:00:33.278909Z"}}}